Probability
0 0 0 0 0 0 0 0 0 0 0 0 0 0 0 0 0 0 0 0 0 0 0 0 0 0 0 0 0 0 0 0 0 0 0 0 0 0 0 0 0 0 0
0 0 0 0 0 0 0 0 0 0 0 0 0 0 0 0 0 0 0 0 0 0 0 0 0 0 0 0 0 0 0 0 0 0 0 0 0 0 0 0 0 0 0
0 0 0 0 0 0 0 0 0 0 0 0 0 0 0 0 0 0 0 0 0 0 0 0 0 0 0 0 0 0 0 0 0 0 0 0 0 0 0 0 0 0 0
0 0 0 0 0 0 0 0 0 0 0 0 0 0 0 0 0 0 0 0 0 0 0 0 0 0 0 0 0 0 0 0 0 0 0 0 0 0 0 0 0 0 0
0 0 0 0 0 0 0 0 0 0 0 0 0 0 0 0 0 0 0 0 0 0 0 0 0 0 0 0 0 0 0 0 0 0 0 0 0 0 0 0 0 0 0
0 0 0 0 0 0 0 0 0 0 0 0 0 0 0 0 0 0 0 0 0 0 0 0 0 0 0 0 0 0 0 0 0 0 0 0 0 0 0 0 0 0 0
0 0 0 0 0 0 0 0 0 0 0 0 0 0 0 0 0 0 0 0 0 0 0 0 0 0 0 0 0 0 0 0 0 0 0 0 0 0 0 0 0 0 0
0 0 0 0 0 0 0 0 0 0 0 0 0 0 0 0 0 0 0 0 0 0 0 0 0 0 0 0 0 0 0 0 0 0 0 0 0 0 0 0 0 0 0
0 0 0 0 0 0 0 0 0 0 0 0 0 0 0 0 0 0 0 0 0 0 0 0 0 0 0 0 0 0 0 0 0 0 0 0 0 0 0 0 0 0 0
0 0 0 0 0 0 0 0 0 0 0 0 0 0 0 0 0 0 0 0 0 0 0 0 0 0 0 0 0 0 0 0 0 0 0 0 0 0 0 0 0 0 0
0 0 0 0 0 0 0 0 0 0 0 0 0 0 0 0 0 0 0 0 0 0 0 0 0 0 0 0 0 0 0 0 0 0 0 0 0 0 0 0 0 0 0
0 0 0 0 0 0 0 0 0 0 0 0 0 0 0 0 0 0 0 0 0 0 0 0 0 0 0 0 0 0 0 0 0 0 0 0 0 0 0 0 0 0 0
0 0 0 0 0 0 0 0 0 0 0 0 0 0 0 0 0 0 0 0 0 0 0 0 0 0 0 0 0 0 0 0 0 0 0 0 0 0 0 0 0 0 0
0 0 0 0 0 0 0 0 0 0 0 0 0 0 0 0 0 0 0 0 0 0 0 0 0 0 0 0 0 0 0 0 0 0 0 0 0 0 0 0 0 0 0
0 0 0 0 0 0 0 0 0 0 0 0 0 0 0 0 0 0 0 0 0 0 0 0 0 0 0 0 0 0 0 0 0 0 0 0 0 0 0 0 0 0 0
0 0 0 0 0 0 0 0 0 0 0 0 0 0 0 0 0 0 0 0 0 0 0 0 0 0 0 0 0 0 0 0 0 0 0 0 0 0 0 0 0 0 0
0 0 0 0 0 0 0 0 0 0 0 0 0 0 0 0 0 0 0 0 0 0 0 0 0 0 0 0 0 0 0 0 0 0 0 0 0 0 0 0 0 0 0
0 0 0 0 0 0 0 0 0 0 0 0 0 0 0 0 0 0 0 0 0 0 0 0 0 0 0 0 0 0 0 0 0 0 0 0 0 0 0 0 0 0 0
0 0 0 0 0 0 0 0 0 0 0 0 0 0 0 0 0 0 0 0 0 0 0 0 0 0 0 0 0 0 0 0 0 0 0 0 0 0 0 0 0 0 0
0 0 0 0 0 0 0 0 0 0 0 0 0 0 0 0 0 0 0 0 0 0 0 0 0 0 0 0 0 0 0 0 0 0 0 0 0 0 0 0 0 0 0
0 0 0 0 0 0 0 0 0 0 0 0 0 0 0 0 0 0 0 0 0 0 0 0 0 0 0 0 0 0 0 0 0 0 0 0 0 0 0 0 0 0 0
0 0 0 0 0 0 0 0 0 0 0 0 0 0 0 0 0 0 0 0 0 0 0 0 0 0 0 0 0 0 0 0 0 0 0 0 0 0 0 0 0 0 0
0 0 0 0 0 0 0 0 0 0 0 0 0 0 0 0 0 0 0 0 0 0 0 0 0 0 0 0 0 0 0 0 0 0 0 0 0 0 0 0 0 0 0
0 0 0 0 0 0 0 0 0 0 0 0 0 0 0 0 0 0 0 0 0 0 0 0 0 0 0 0 0 0 0 0 0 0 0 0 0 0 0 0 0 0 0
0 0 0 0 0 0 0 0 0 0 0 0 0 0 0 0 0 0 0 0 0 0 0 0 0 0 0 0 0 0 0 0 0 0 0 0 0 0 0 0 0 0 0
0 0 0 0 0 0 0 0 0 0 0 0 0 0 0 0 0 0 0 0 0 0 0 0 0 0 0 0 0 0 0 0 0 0 0 0 0 0 0 0 0 0 0
Height
5750 5751 5753 5755 5757 5758 5760 5761 5762 5764 5766 5768 5769 5771 5772 5774 5775 5776 5777 5778 5778 5779 5779 5779 5779 5779 5779 5779 5778 5778 5777 5776 5775 5773 5771 5768 5766 5763 5760 5756 5753 5749 5744
5745 5746 5748 5749 5752 5753 5754 5756 5757 5759 5760 5762 5763 5765 5766 5768 5769 5770 5771 5772 5772 5772 5772 5772 5772 5772 5772 5771 5771 5770 5769 5768 5766 5764 5762 5759 5756 5753 5750 5746 5742 5738 5734
5739 5740 5742 5744 5746 5748 5749 5750 5752 5753 5755 5756 5758 5759 5760 5762 5763 5764 5765 5765 5765 5766 5766 5766 5765 5765 5764 5764 5763 5762 5761 5759 5758 5756 5753 5750 5747 5744 5740 5736 5733 5729 5725
5734 5735 5736 5738 5740 5742 5743 5745 5746 5748 5749 5751 5752 5753 5754 5756 5756 5757 5758 5758 5759 5759 5759 5759 5758 5758 5757 5757 5756 5754 5753 5751 5749 5747 5744 5741 5738 5735 5731 5728 5724 5720 5716
5728 5729 5730 5732 5734 5736 5737 5739 5741 5742 5743 5745 5746 5747 5748 5749 5750 5751 5751 5752 5752 5752 5752 5752 5752 5751 5750 5749 5748 5747 5745 5743 5741 5738 5736 5733 5730 5726 5723 5719 5715 5711 5707
5723 5724 5725 5726 5727 5729 5731 5732 5734 5736 5737 5738 5739 5740 5742 5743 5744 5744 5745 5745 5745 5746 5746 5745 5745 5744 5743 5742 5741 5739 5737 5735 5733 5730 5727 5725 5721 5718 5714 5711 5707 5703 5700
5717 5718 5719 5720 5721 5723 5724 5726 5728 5729 5730 5732 5733 5734 5735 5736 5737 5738 5738 5739 5739 5739 5739 5739 5738 5738 5736 5735 5733 5732 5730 5727 5725 5723 5720 5717 5713 5710 5707 5704 5700 5697 5693
5710 5711 5713 5714 5716 5717 5719 5720 5722 5723 5724 5726 5727 5728 5730 5731 5731 5732 5732 5733 5733 5733 5733 5733 5732 5731 5729 5728 5726 5724 5722 5720 5718 5715 5712 5709 5706 5703 5700 5697 5694 5691 5688
5704 5706 5707 5708 5710 5711 5713 5714 5716 5717 5719 5720 5721 5723 5724 5725 5726 5726 5727 5727 5727 5727 5727 5726 5725 5724 5723 5721 5720 5718 5716 5713 5711 5708 5705 5703 5700 5697 5694 5692 5689 5686 5683
5699 5700 5702 5703 5704 5706 5707 5709 5710 5712 5713 5715 5716 5718 5719 5719 5720 5721 5721 5721 5722 5721 5721 5720 5719 5718 5717 5715 5714 5712 5709 5707 5704 5702 5699 5697 5694 5692 5689 5687 5684 5682 5679
5695 5696 5697 5698 5700 5701 5703 5704 5705 5707 5709 5710 5711 5712 5713 5714 5715 5715 5716 5716 5716 5716 5715 5714 5713 5712 5711 5709 5708 5706 5703 5701 5699 5697 5695 5692 5690 5688 5685 5683 5680 5678 5676
5691 5692 5693 5694 5695 5697 5698 5700 5701 5703 5704 5705 5707 5708 5709 5709 5710 5710 5711 5711 5710 5710 5709 5709 5708 5706 5705 5704 5702 5700 5698 5696 5694 5692 5690 5688 5686 5684 5681 5679 5677 5675 5673
5688 5689 5690 5691 5692 5693 5695 5696 5698 5699 5700 5701 5702 5703 5704 5705 5705 5705 5706 5706 5705 5705 5704 5703 5702 5701 5700 5699 5697 5695 5694 5692 5690 5689 5687 5685 5683 5680 5678 5676 5674 5673 5671
5685 5686 5687 5688 5689 5690 5692 5693 5694 5695 5696 5697 5699 5700 5700 5701 5701 5701 5701 5701 5701 5700 5699 5698 5698 5697 5695 5694 5693 5691 5690 5688 5687 5685 5683 5681 5679 5677 5675 5674 5672 5670 5669
5683 5684 5685 5686 5687 5688 5689 5690 5691 5692 5694 5695 5696 5696 5697 5697 5697 5698 5697 5697 5696 5696 5695 5694 5693 5692 5691 5690 5689 5687 5686 5685 5684 5682 5680 5678 5677 5675 5673 5672 5670 5669 5668
5681 5681 5683 5684 5685 5686 5687 5688 5689 5691 5692 5692 5693 5694 5694 5694 5694 5694 5694 5693 5693 5692 5692 5691 5690 5689 5688 5687 5686 5685 5683 5682 5681 5679 5678 5676 5675 5673 5671 5670 5669 5668 5667
5679 5680 5681 5682 5684 5685 5686 5687 5688 5689 5690 5690 5691 5691 5692 5692 5691 5691 5691 5691 5690 5690 5689 5688 5687 5686 5685 5684 5683 5682 5681 5679 5678 5677 5675 5674 5673 5671 5670 5669 5668 5667 5666
5679 5680 5681 5682 5683 5684 5685 5686 5687 5688 5689 5689 5689 5690 5690 5689 5689 5689 5689 5689 5688 5688 5687 5686 5685 5684 5683 5682 5681 5680 5678 5677 5676 5674 5673 5672 5671 5670 5669 5668 5667 5666 5666
5679 5680 5681 5681 5682 5683 5684 5685 5686 5687 5688 5688 5688 5688 5688 5688 5688 5688 5688 5687 5687 5686 5685 5684 5683 5682 5681 5680 5679 5678 5676 5675 5674 5673 5672 5670 5670 5669 5668 5667 5666 5666 5666
5680 5681 5681 5682 5683 5684 5684 5685 5686 5687 5688 5688 5688 5688 5688 5688 5688 5688 5687 5687 5686 5685 5684 5683 5682 5681 5680 5679 5678 5676 5675 5674 5673 5672 5671 5670 5669 5668 5667 5667 5666 5666 5666
5682 5683 5683 5684 5684 5685 5686 5686 5687 5688 5688 5689 5689 5689 5689 5688 5688 5688 5687 5687 5686 5685 5684 5683 5682 5680 5679 5678 5677 5675 5674 5673 5672 5671 5670 5669 5669 5668 5667 5667 5667 5667 5666
5684 5685 5685 5686 5686 5687 5688 5688 5689 5689 5690 5690 5690 5690 5690 5690 5690 5689 5688 5688 5687 5686 5685 5683 5682 5680 5679 5678 5676 5675 5674 5673 5672 5671 5670 5670 5669 5669 5668 5668 5667 5667 5667
5687 5687 5688 5688 5689 5689 5690 5690 5691 5691 5692 5692 5692 5692 5692 5692 5691 5691 5690 5689 5688 5687 5686 5684 5683 5681 5680 5678 5677 5676 5675 5674 5673 5672 5671 5671 5670 5670 5669 5669 5668 5668 5668
5690 5691 5691 5691 5692 5692 5693 5693 5694 5694 5694 5694 5694 5694 5694 5694 5694 5693 5692 5691 5690 5689 5688 5686 5685 5683 5681 5680 5678 5677 5676 5675 5674 5673 5672 5672 5672 5671 5671 5670 5670 5669 5668
5694 5694 5695 5695 5695 5696 5696 5696 5697 5697 5697 5697 5697 5697 5697 5697 5696 5696 5695 5694 5693 5691 5690 5689 5687 5685 5684 5682 5681 5680 5678 5677 5676 5675 5674 5674 5673 5673 5672 5671 5670 5670 5669
5699 5699 5699 5699 5699 5699 5700 5700 5701 5701 5701 5701 5701 5700 5700 5700 5699 5698 5698 5697 5695 5694 5693 5691 5690 5688 5687 5685 5684 5683 5681 5680 5679 5678 5677 5676 5675 5674 5673 5672 5671 5670 5669
Wind_Speed
18 18 18 18 19 19 20 20 19 19 18 19 20 20 20 20 20 20 21 22 23 24 25 25 26 27 27 28 28 29 30 31 32 34 35 36 37 39 40 42 43 43 44
17 17 18 18 19 19 19 19 18 18 18 18 19 20 20 19 19 20 21 22 22 23 23 24 25 26 26 27 27 28 29 30 31 33 35 36 38 39 41 41 42 42 42
17 18 18 19 19 19 19 19 19 18 18 18 19 20 20 20 20 20 21 21 21 22 22 23 24 24 25 26 27 28 29 30 32 33 35 36 37 38 39 39 39 39 40
17 18 18 18 19 19 20 20 20 20 20 20 20 20 20 20 20 20 21 21 21 22 22 23 24 24 25 26 27 28 29 31 32 33 34 35 36 36 36 37 37 37 37
16 16 18 19 20 21 21 20 20 21 22 22 22 21 21 21 21 21 21 22 22 22 22 22 23 24 25 26 27 28 29 30 31 32 32 33 33 34 34 34 34 34 33
17 18 18 18 19 19 20 20 20 20 21 22 22 22 22 21 21 21 22 22 22 22 22 22 23 24 25 25 27 27 28 28 29 30 30 31 31 32 31 31 31 30 29
18 18 18 19 18 18 18 20 21 20 20 20 20 20 20 21 21 21 21 21 21 21 22 22 22 23 24 25 26 26 27 27 28 28 29 29 29 29 28 28 28 27 25
18 18 18 19 19 19 19 19 19 19 19 19 19 19 19 19 19 20 20 20 20 20 21 21 22 23 24 24 24 25 25 26 26 27 27 27 27 26 25 24 23 22 21
17 17 17 18 17 17 18 19 19 19 19 18 18 18 19 19 19 19 19 18 19 20 21 21 22 22 23 23 22 23 23 24 24 24 24 24 23 22 22 20 20 19 18
15 15 16 16 16 16 16 17 17 17 17 16 17 17 17 18 18 17 17 18 18 19 20 20 20 20 21 21 21 21 22 22 22 21 21 20 20 19 19 18 17 17 16
12 13 14 14 14 14 14 14 15 16 16 15 15 16 16 16 16 17 17 17 18 18 18 19 19 19 19 19 19 19 19 19 19 18 18 17 17 17 17 16 16 15 13
10 10 10 11 11 11 11 12 13 14 15 15 15 15 15 16 16 16 16 17 17 17 17 18 18 18 17 17 17 17 17 17 16 16 15 15 15 15 15 14 13 12 11
8 9 9 10 10 11 11 12 12 12 12 13 13 14 14 15 15 15 15 16 16 15 15 15 16 15 15 15 15 15 15 14 14 14 14 14 14 14 13 12 11 10 10
8 8 9 9 9 9 10 10 10 9 10 11 11 11 11 12 12 12 13 13 13 13 14 14 14 13 13 14 13 13 13 13 13 13 13 13 12 12 11 11 10 9 8
6 7 8 8 8 8 8 8 7 7 7 8 8 8 8 9 9 10 11 11 11 11 12 12 12 12 12 12 12 12 12 12 12 12 12 11 11 10 10 9 8 7 7
5 5 6 6 6 6 6 6 6 6 6 6 6 6 6 7 8 8 9 9 9 9 9 10 10 10 10 10 10 10 11 11 11 11 10 10 9 9 8 7 6 6 5
2 4 5 5 5 5 5 5 5 5 5 5 5 5 5 5 6 6 7 6 7 7 8 8 9 9 9 9 9 9 9 10 10 9 9 8 8 8 7 5 5 4 4
3 3 4 4 4 4 4 4 3 3 3 3 3 3 3 4 4 4 4 5 5 6 6 7 7 7 7 7 8 8 9 9 8 8 7 7 7 6 5 4 4 3 3
4 4 4 3 4 4 4 3 3 2 2 1 0 1 2 2 2 3 3 3 4 5 5 5 6 6 6 6 7 8 8 7 7 6 6 6 5 4 3 3 3 2 2
6 6 5 5 5 5 5 5 4 4 3 2 2 2 2 1 1 1 2 3 3 4 5 5 5 6 6 6 6 7 7 6 5 5 5 4 3 2 2 2 2 2 2
7 7 7 7 7 7 7 7 6 5 5 5 5 4 4 4 4 4 4 4 4 4 5 5 5 5 6 6 6 6 5 5 4 4 3 3 2 2 2 2 2 2 2
9 9 9 9 8 8 8 8 7 7 7 7 6 6 6 6 6 6 5 5 6 6 6 6 6 6 6 6 6 5 5 5 4 3 3 3 3 3 3 3 2 2 2
11 10 10 10 10 10 10 10 9 9 9 8 8 8 8 7 7 7 7 7 8 8 8 8 8 8 8 8 7 6 6 5 5 4 4 4 4 4 3 3 3 3 3
13 12 13 13 12 12 12 11 11 11 11 10 10 10 9 9 9 9 9 9 9 10 10 10 10 10 10 10 9 8 8 7 6 6 5 5 5 4 4 4 4 4 4
15 15 15 15 14 14 13 13 13 13 12 12 11 11 11 11 11 10 10 11 11 11 11 11 11 11 11 11 11 11 10 9 9 8 7 6 6 5 5 5 4 5 5
17 17 17 17 16 16 15 15 15 14 13 13 13 12 12 12 12 11 11 11 12 12 12 12 12 12 12 12 11 11 10 9 9 8 7 6 6 5 5 5 6 6 6
Wind_Direction
258 253 253 252 252 253 254 254 251 251 253 250 249 251 252 253 254 257 259 261 262 265 267 269 271 273 273 273 274 276 279 280 282 284 287 289 290 292 293 294 295 295 296
257 252 251 253 251 250 252 252 250 251 252 251 250 251 253 254 255 256 258 263 265 267 270 273 275 275 275 276 279 281 283 285 286 288 289 290 291 293 294 294 296 297 298
257 252 250 250 249 248 249 251 251 251 250 250 250 251 253 256 258 259 262 266 270 271 274 277 278 278 278 279 281 283 284 285 287 289 291 291 293 294 295 297 298 299 299
256 252 248 248 249 249 247 248 249 249 249 250 250 251 253 256 259 261 264 267 272 274 276 279 280 280 281 282 284 285 287 288 290 291 292 293 295 296 297 299 299 300 301
255 253 249 247 247 246 244 244 245 245 247 248 250 252 253 256 260 263 266 269 272 275 277 279 280 282 283 285 286 287 289 290 292 293 294 296 297 298 299 300 301 302 302
254 253 253 249 247 245 245 245 246 248 248 248 250 253 256 259 263 265 267 270 271 274 276 279 282 284 285 286 287 288 290 292 293 295 296 297 298 300 300 301 302 303 303
256 252 251 249 248 249 246 246 247 248 248 247 249 253 256 258 262 264 266 268 271 273 276 279 280 281 283 286 289 290 292 295 296 297 298 299 300 300 300 301 302 303 305
253 249 248 247 247 246 246 246 245 246 249 248 248 251 254 257 259 260 263 266 269 272 275 278 279 281 285 288 290 292 294 296 297 298 299 300 300 301 301 302 304 305 307
252 248 245 244 245 247 247 248 248 248 247 248 251 252 254 256 259 260 261 264 268 272 275 278 281 283 286 288 290 293 295 296 298 299 300 301 301 303 304 304 305 307 307
251 246 245 243 244 245 244 245 244 245 244 246 249 251 254 256 257 258 261 266 270 273 275 278 281 283 285 287 291 294 297 299 300 301 303 303 304 306 308 306 308 310 310
247 245 242 239 238 238 239 239 239 241 240 244 249 249 251 253 255 258 263 266 270 273 276 278 280 282 285 288 293 296 299 301 302 304 305 307 309 310 311 310 311 312 311
243 241 235 233 232 234 233 233 235 238 238 240 245 248 249 251 255 259 263 266 267 271 276 278 280 282 286 290 293 297 300 302 304 305 307 310 312 312 313 313 313 312 310
237 233 230 230 229 230 229 231 233 237 240 242 247 251 253 255 257 260 264 266 267 272 277 279 281 283 286 289 293 297 300 302 304 305 308 311 313 314 314 312 312 312 312
233 232 230 227 229 227 230 231 232 237 244 247 249 250 251 253 256 260 261 266 271 275 278 279 281 284 287 292 295 299 302 304 304 306 309 312 313 314 314 313 312 314 315
233 233 229 228 228 227 226 227 229 233 237 239 241 244 248 254 259 264 268 272 275 277 280 282 285 289 292 295 298 300 302 304 305 307 309 312 314 313 313 312 312 315 318
222 214 212 210 214 216 214 215 218 222 227 233 237 244 253 262 267 270 273 275 277 280 285 288 292 294 297 298 300 301 302 303 305 307 308 310 312 313 311 308 309 315 318
189 194 197 198 199 200 201 206 210 213 219 228 236 249 262 270 274 276 279 280 285 290 293 297 299 300 300 301 302 303 303 303 305 306 306 308 311 313 311 307 308 315 317
135 152 166 174 179 183 186 190 190 192 205 219 235 253 270 281 284 285 284 289 296 301 305 308 308 308 307 306 306 307 306 306 305 306 306 308 311 313 312 312 317 320 326
106 116 127 138 146 151 151 153 154 156 158 164 237 290 298 298 295 294 298 305 311 315 317 318 317 314 312 312 312 312 312 311 311 311 312 314 315 317 319 324 333 341 350
100 100 105 111 116 121 124 125 127 125 114 95 77 61 46 42 33 10 357 349 343 339 335 332 330 327 324 322 320 320 321 321 320 320 321 324 327 333 347 1 12 21 13
100 100 101 103 107 110 112 114 113 109 100 92 88 83 82 77 71 59 45 30 18 10 3 356 353 348 344 340 338 336 336 337 336 335 341 352 4 16 31 45 52 43 26
100 101 102 102 102 104 105 105 103 100 98 96 93 90 84 77 73 67 58 48 39 33 27 21 17 12 8 5 3 1 2 5 9 15 23 34 43 46 49 54 54 44 28
97 99 100 101 101 101 101 100 97 97 97 95 93 88 83 79 75 71 64 57 51 45 41 37 35 32 30 30 29 29 30 30 33 38 42 50 53 51 50 47 43 38 32
93 96 98 99 99 99 98 96 95 95 93 91 89 87 84 80 76 71 66 61 57 53 50 48 47 45 44 43 43 44 45 46 48 51 55 58 56 52 47 41 36 30 20
92 95 96 96 96 96 96 95 94 93 91 89 87 85 83 81 77 72 67 64 61 58 55 54 52 51 49 49 50 51 51 52 55 57 58 56 53 48 40 31 21 12 1
89 91 92 93 94 94 94 94 93 92 90 87 86 84 82 80 77 73 69 66 62 59 56 54 52 50 50 49 49 49 48 48 48 47 45 42 37 29 19 8 359 351 344